Location: Newark
(39.5667°N, 8.9833°E)
Time: 21:31:46
(UTC+00:00)

Transit 2A - Pass Details

Date: 25 October 2019
Orbit: 601 x 957 km, 66.7° (Epoch: 20 November)

Event Time Altitude Azimuth Distance (km) Brightness Sun altitude
Rises 15:45:48 0° 162° (SSE) 3,396 9.4 7.5°
Reaches altitude 10° 15:49:22 10° 141° (SE) 2,389 8.4 6.9°
Maximum altitude 15:52:23 15° 107° (ESE) 1,990 7.7 6.4°
Drops below altitude 10° 15:55:16 10° 73° (ENE) 2,262 7.8 5.8°
Sets 15:58:29 0° 50° (NE) 3,114 8.5 5.3°
